Location: Baypon Town
(6.2320°N, 10.5123°W)
Time: 05:59:57
(UTC+00:00)

Daily predictions for brighter satellites

Satellite Brightness Start Highest point End
(mag) Time Altitude Azimuth Time Altitude Azimuth Time Altitude Azimuth
Milstar 3 Cent rocket 4.0 03:34:17 74° E 03:34:17 74° E 03:51:39 10° ESE
Cosmos 2360 Rocket 4.5 03:56:31 15° SE 03:58:47 19° ESE 04:02:42 10° ENE
Cosmos 2322 Rocket 3.6 04:16:50 30° NNE 04:16:50 30° NNE 04:19:37 10° NNE
Maqsat-H 3.7 04:21:51 24° SE 04:21:51 24° SE 04:23:29 10° ESE
SL-16 R/B 4.0 04:25:35 21° N 04:25:35 21° N 04:27:19 10° N
BLOCK DM-SL 4.2 04:23:54 62° SSW 04:24:35 65° S 04:30:23 10° E
NOSS 3-1 (A) 4.4 04:33:26 55° SW 04:33:26 55° SW 04:41:13 10° S
Ariane H10 4.4 04:32:34 28° S 04:34:06 30° SSE 04:45:55 10° ESE
Ariane 3 Deb 4.5 04:33:19 58° W 04:35:40 89° N 05:33:58 10° E
Meteor 1-14 Rocket 4.2 04:36:48 10° N 04:42:19 76° E 04:47:50 10° S
Cosmos 2208 Rocket 4.4 04:47:41 10° S 04:52:53 62° ESE 04:58:04 10° NNE
Cosmos 2333 Rocket 4.4 04:53:08 10° SSE 04:57:48 26° ESE 05:02:26 10° NE
ARIANE 44LP R/B 3.7 04:59:57 23° ESE 04:59:57 23° ESE 05:01:27 10° ESE
Cosmos 1777 Rocket 3.8 04:59:01 24° NNW 05:02:10 74° WSW 05:07:20 10° S
Cosmos 1238 Rocket 3.7 04:57:01 10° NNW 05:02:52 54° W 05:07:51 10° SSW
IRIDIUM 104 4.2 04:58:31 10° N 05:03:43 87° E 05:08:57 10° S
GEOS 3 Rocket 4.2 04:59:00 10° NE 05:04:12 58° ESE 05:09:19 10° SSW
Cosmos 2227 Rocket 4.0 05:08:57 15° SSW 05:08:57 15° SSW 05:10:06 10° SSW
Cosmos 1934 Rocket 4.1 05:00:20 10° NNW 05:06:05 45° W 05:11:55 10° SSW
deb Chang Zheng 4 4.1 05:02:57 10° N 05:05:55 40° NNW 05:05:55 40° NNW
ARIANE 5 R/B 3.5 05:06:48 36° WSW 05:09:07 61° S 05:43:40 10° E
CZ-4B R/B 4.2 05:07:39 10° NNE 05:10:57 35° E 05:14:17 10° S
CZ-4B R/B 4.1 05:07:03 10° NNE 05:11:29 86° E 05:15:59 10° S
Delta 142 4.2 05:10:44 40° W 05:12:50 63° NNW 05:17:53 10° NE
IRIDIUM 114 4.2 05:07:40 10° N 05:12:51 72° W 05:18:02 10° S
CZ-3 R/B 4.1 04:48:04 10° SW 05:15:41 40° SSE 05:23:30 10° E
Meteor 1-27 Rocket 4.0 05:12:46 10° SSW 05:18:21 45° W 05:23:58 10° NNW
ARIANE 5 R/B 3.7 05:17:40 19° S 05:18:27 21° SSE 05:22:46 10° ESE
ADEOS 3.8 05:14:38 10° N 05:19:32 43° WNW 05:22:47 20° SW
Cosmos 1814 Rocket 3.9 05:15:06 11° SSW 05:19:56 63° WNW 05:25:02 10° N
IRIDIUM 103 4.3 05:16:53 10° NNW 05:21:57 55° W 05:27:03 10° SSW
Cosmos 1000 Rocket 4.4 05:16:11 10° S 05:22:25 72° W 05:28:36 10° N
Timation 1 Rocket 4.4 05:18:55 10° NNW 05:24:55 81° ENE 05:30:55 10° SSE
Cosmos 841 Rocket 3.9 05:23:22 27° SW 05:25:30 39° WNW 05:30:19 10° N
Ariane H10+ 3.5 05:23:41 27° SW 05:25:39 38° S 05:29:54 10° ESE
Cosmos 2333 4.4 05:20:11 10° S 05:25:55 76° ESE 05:31:40 10° NNE
Meteor 1-11 Rocket 4.3 05:21:25 10° N 05:26:58 60° E 05:32:26 10° SSE
ISS -1.4 05:30:00 12° SSW 05:30:00 12° SSW 05:30:27 10° SSW
Cosmos 1605 Rocket 4.2 05:23:07 10° NNW 05:29:13 48° W 05:35:18 10° SSW
Cosmos 1862 Rocket 3.5 05:25:02 10° SSW 05:29:26 64° W 05:33:48 10° N
Sakura Rocket 4.4 05:29:36 11° NNW 05:32:51 26° NNE 05:35:58 10° E
ALOS 2.7 05:32:15 10° N 05:36:32 37° WNW 05:40:49 10° SW
Cosmos 1437 Rocket 2.6 05:32:47 10° S 05:36:34 90° W 05:40:19 10° N
Intelsat 5-1 Rocket 3.9 05:32:41 20° WNW 05:37:18 80° SSW 05:56:19 10° ESE
ERS-2 2.3 05:34:07 10° S 05:37:39 47° WSW 05:41:10 10° NNW
Cosmos 1536 3.7 05:34:01 10° N 05:37:58 53° E 05:41:55 10° SSE
H-2A R/B 3.0 05:35:24 10° SSW 05:38:51 25° W 05:42:21 10° NW
Meteor 2-20 4.4 05:33:49 10° SSW 05:39:54 64° W 05:45:58 10° N
Cosmos 1869 Rocket 3.9 05:36:32 10° NNW 05:40:33 39° W 05:44:35 10° SSW
Hubble Space Telescope 0.7 05:38:28 22° WSW 05:41:00 76° NNW 05:45:07 10° ENE
Cosmos 1484 Rocket 3.9 05:38:42 10° NNW 05:41:57 24° WNW 05:44:11 15° WSW
Cosmos 2360 Rocket 3.0 05:38:26 14° SW 05:42:27 29° WNW 05:47:19 10° NNW
Delta 2 Rocket 2.8 05:47:41 18° WSW 05:50:01 59° NW 05:53:20 10° NE
Meteor 1-31 Rocket 4.0 05:49:45 10° NNW 05:52:39 21° WNW 05:55:34 10° SW
SJ 16-02 1.3 05:51:50 10° NNW 05:56:12 74° WSW 06:00:34 10° S
COSMO-SKYMED 1 4.1 05:57:49 10° SSE 06:01:54 41° ENE 06:05:58 10° N
OAO 3 Rocket 4.0 05:58:59 11° W 06:03:17 35° NW 06:07:48 10° NNE
Cosmos 2100 Rocket 4.0 05:57:37 10° N 06:03:56 72° W 06:10:14 10° S
Meteor PRIRODA 4.3 06:00:53 10° NNW 06:04:09 32° WNW 06:07:25 10° SW
Cosmos 2123 Rocket 4.2 05:58:35 10° SSW 06:04:32 50° W 06:10:31 10° NNW
Cosmos 1515 3.7 06:01:30 10° SSW 06:05:16 59° W 06:09:00 10° N
Cosmos 1802 Rocket 4.2 06:00:06 10° N 06:06:21 83° E 06:12:43 10° S
Chandra Rocket (1) 4.4 06:00:44 10° NW 06:06:23 20° N 06:09:19 10° NE
Meteor 2-4 Rocket 4.4 06:04:04 10° S 06:09:43 63° E 06:15:11 10° NNE
CZ-4B R/B 2.3 06:08:01 10° SSW 06:10:31 23° W 06:13:03 10° NW
Ariane H10 4.4 06:03:19 10° WSW 06:10:56 22° SSW 06:14:11 10° SE
CZ-3A R/B 2.8 06:08:17 10° SW 06:11:07 43° SE 06:19:11 10° ENE
PSLV R/B 3.8 06:09:35 10° N 06:13:22 61° WNW 06:17:16 10° SSW
Ariane 42L Rocket 3.8 06:08:29 10° WSW 06:14:04 25° S 06:16:26 10° SE
ARIANE 5 R/B 3.7 05:56:58 10° W 06:15:50 78° S 06:19:20 10° ESE
Ariane H10+ 3.4 06:13:46 10° SW 06:15:55 13° SSW 06:17:26 10° S
ARIANE 5 R/B 3.1 06:08:57 10° W 06:20:01 44° SSW 06:22:50 10° ESE
